Powrót do katalogu

STARLINK-3198

AktywnyŁącznośćVLEO
NORAD 49763·PAYLOAD·🇺🇸 United States

Wystrzelony Dec 2, 2021 z Cape Canaveral Space Force Station

Loading…

Następne Przeloty (najbliższe 24 godziny)

TLE

ŚwieżeSource: CelesTrak SupGP

Epoka: Sep 14, 2026, 20:02 UTC

1 49763C 21115AR  26257.83520833  .00000556  00000+0  17897-4 0  2571
2 49763  53.1588   0.1462 0001346  73.4537 115.3190 15.31699182    13

Śledź STARLINK-3198 w czasie rzeczywistym z AllMySat

Download on the App Store